Flag for U.S.A. Weather past 2 weeks in Hialeah, Florida, U.S.A.

Now
59 °F

Scattered clouds.


Feels Like: 58 °F
Forecast: 54 / 71 °F
Wind: 6 mph from North

Location: Opa Locka Airport

Current Time: Jan 29, 2015 at 10:00:03 AM

Latest Report: Jan 29, 2015 at 8:53 AM


Visibility: 10 mi

Pressure: 30.26 "Hg

Humidity: 72%

Dew point: 50 °F

Location of HialeahLocation

Historic Weather in Hialeah — Graph

°F

Hialeah temperature yesterday

Maximum temperature yesterday: 68 °F (at 2:53 PM)
Minimum temperature yesterday: 53 °F (at 6:53 AM)
Average temperature yesterday: 60 °F

Past Weeks' High & Low Weather Summary

 TemperatureHumidityPressure
High81 °F (Jan 21, 11:53 AM)100% (Jan 14, 8:53 AM)30.26 "Hg (Jan 14, 8:53 AM)
Low51 °F (Jan 25, 5:53 AM)24% (Jan 28, 2:53 PM)29.86 "Hg (Jan 26, 2:53 PM)
Average67 °F70%30.07 "Hg
* Reported Jan 14 8:53 AM — Jan 29 8:53 AM, Hialeah, Weather by CustomWeather, © 2014

Note: Actual official high and low records may vary slightly from our data, if they occured in-between our weather recording intervals... More about our weather records

Advertising

Hialeah weather history for previous 24 hours

 ConditionsComfort  
Time TempWeatherWind HumidityBarometerVisibility
8:53 AM
Jan 29
59 °FScattered clouds.6 mph72%30.26 "Hg10 mi
7:53 AM55 °FSunny.3 mph80%30.24 "Hg10 mi
6:53 AM53 °FPassing clouds.7 mph83%30.22 "Hg10 mi
5:53 AM52 °FPassing clouds.7 mph86%30.20 "Hg10 mi
4:53 AM52 °FPassing clouds.5 mph86%30.19 "Hg10 mi
3:53 AM53 °FClear.7 mph80%30.19 "Hg10 mi
2:53 AM54 °FPartly cloudy.9 mph77%30.18 "Hg10 mi
1:53 AM54 °FClear.9 mph77%30.19 "Hg10 mi
12:53 AM55 °FPassing clouds.9 mph74%30.19 "Hg10 mi
11:53 PM
Jan 28
55 °FClear.10 mph74%30.20 "Hg10 mi
10:53 PM55 °FClear.9 mph69%30.19 "Hg10 mi
9:53 PM56 °FClear.8 mph60%30.20 "Hg10 mi
8:53 PM57 °FClear.8 mph46%30.21 "Hg10 mi
7:53 PM59 °FClear.9 mph39%30.20 "Hg10 mi
6:53 PM61 °FClear.7 mph36%30.18 "Hg10 mi
5:53 PM64 °FSunny.8 mph29%30.15 "Hg10 mi
4:53 PM67 °FSunny.8 mph25%30.14 "Hg10 mi
3:53 PM68 °FSunny.15 mph24%30.12 "Hg10 mi
2:53 PM68 °FSunny.9 mph24%30.12 "Hg10 mi
1:53 PM67 °FSunny.10 mph30%30.13 "Hg10 mi
12:53 PM66 °FSunny.13 mph29%30.16 "Hg10 mi
11:53 AM64 °FSunny.15 mph34%30.18 "Hg10 mi
10:53 AM63 °FSunny.14 mph37%30.19 "Hg10 mi
Weather by CustomWeather, © 2014

See weather overviewHow to use our weather pages